CW8490 Weather Reports


Display with metric or nautical units.
time (UTC)temp
F
wind
direction
speed
MPH
gust
MPH
rain 1hr
in
rain 24hr
in
rain mn
in
humidity
%
barometer
mb
20260507144817 59 225 7.0 16.0 0.00 0.00 0.00 66 1016.2
20260507143817 58 293 3.0 8.0 0.00 0.00 0.00 69 1016.2
20260507142817 58 293 3.0 6.0 0.00 0.00 0.00 70 1016.2
20260507141817 58 270 4.0 6.0 0.00 0.00 0.00 70 1016.2
20260507140817 57 270 3.0 6.0 0.00 0.00 0.00 70 1016.4
20260507135837 57 225 1.0 2.0 0.00 0.00 0.00 70 1016.4
20260507134815 56 270 1.0 3.0 0.00 0.00 0.00 72 1016.5
20260507133835 56 225 2.0 4.0 0.00 0.00 0.00 72 1016.4
20260507132815 55 203 1.0 3.0 0.00 0.00 0.00 73 1016.5
20260507131815 54 203 2.0 4.0 0.00 0.00 0.00 73 1016.7
20260507130815 53 0.0 4.0 0.00 0.00 0.00 75 1016.8
20260507125835 52 0.0 1.0 0.00 0.00 0.00 78 1017.0
20260507124815 51 0.0 1.0 0.00 0.00 0.00 79 1016.9
20260507123835 50 180 1.0 1.0 0.00 0.00 0.00 79 1016.8
20260507122815 49 0.0 0.0 0.00 0.00 0.00 85 1016.8
20260507121815 48 0.0 0.0 0.00 0.00 0.00 90 1016.8
20260507120815 45 0.0 0.0 0.00 0.00 0.00 94 1016.6
20260507115815 42 0.0 0.0 0.00 0.00 0.00 93 1016.5
20260507114815 39 0.0 0.0 0.00 0.00 0.00 92 1016.4
20260507113815 38 0.0 0.0 0.00 0.00 0.00 92 1016.2
20260507112815 37 0.0 0.0 0.00 0.00 0.00 91 1016.1
20260507111815 36 0.0 0.0 0.00 0.00 0.00 90 1016.1
20260507110815 37 0.0 0.0 0.00 0.00 0.00 89 1016.1
20260507105835 37 0.0 0.0 0.00 0.00 0.00 90 1016.0
20260507104816 37 0.0 0.0 0.00 0.00 0.00 89 1016.1
20260507103815 37 0.0 0.0 0.00 0.00 0.00 90 1016.0
20260507102815 37 0.0 0.0 0.00 0.00 0.00 90 1016.0
20260507101816 37 0.0 0.0 0.00 0.00 0.00 90 1016.1
20260507100816 38 0.0 0.0 0.00 0.00 0.00 89 1016.1
20260507095816 37 0.0 0.0 0.00 0.00 0.00 89 1016.1
20260507094815 37 0.0 0.0 0.00 0.00 0.00 87 1016.2
20260507093816 38 0.0 0.0 0.00 0.00 0.00 87 1016.3
20260507092815 38 0.0 0.0 0.00 0.00 0.00 87 1016.3
20260507091815 39 0.0 0.0 0.00 0.00 0.00 86 1016.3
20260507090816 39 0.0 0.0 0.00 0.00 0.00 86 1016.3
20260507085816 40 0.0 0.0 0.00 0.00 0.00 88 1016.4
20260507084816 39 0.0 0.0 0.00 0.00 0.00 89 1016.3
20260507083816 39 0.0 0.0 0.00 0.00 0.00 87 1016.3
20260507082846 39 0.0 0.0 0.00 0.00 0.00 86 1016.4
20260507082516 39 0.0 0.0 0.00 0.00 0.00 86 1016.4
20260507081516 40 0.0 0.0 0.00 0.01 0.00 87 1016.3
20260507080516 40 0.0 0.0 0.00 0.01 0.00 86 1016.3
20260507075516 40 0.0 0.0 0.00 0.01 0.00 82 1016.3
20260507074516 41 0.0 0.0 0.00 0.01 0.00 82 1016.3
20260507073516 42 0.0 0.0 0.00 0.01 0.00 82 1016.6
20260507072516 43 0.0 0.0 0.00 0.01 0.00 83 1016.7
20260507071516 42 0.0 0.0 0.00 0.01 0.00 85 1016.8
20260507070516 42 0.0 0.0 0.00 0.01 0.00 84 1016.7
20260507065516 42 0.0 0.0 0.00 0.01 0.00 84 1016.8
20260507064516 42 0.0 0.0 0.00 0.02 0.00 83 1017.0
20260507063516 43 0.0 0.0 0.00 0.02 0.00 84 1017.0
20260507062516 42 0.0 0.0 0.00 0.02 0.00 86 1017.0
20260507061516 42 0.0 0.0 0.00 0.02 0.00 85 1016.9
20260507060516 42 0.0 0.0 0.00 0.02 0.00 86 1016.9
20260507055536 41 0.0 0.0 0.00 0.02 0.00 88 1017.0
20260507054612 39 0.0 0.0 0.00 0.02 0.00 87 1016.9
20260507054416 39 0.0 0.0 0.00 0.02 0.00 85 1016.9
20260507053416 39 0.0 0.0 0.00 0.02 0.00 84 1017.0
20260507052416 40 0.0 0.0 0.00 0.02 0.00 84 1016.9
20260507051416 41 0.0 0.0 0.00 0.02 0.00 85 1017.1
20260507050436 41 0.0 0.0 0.00 0.02 0.00 86 1017.0
20260507045417 41 0.0 0.0 0.00 0.02 0.02 86 1017.0
20260507044417 41 0.0 0.0 0.00 0.02 0.02 88 1017.0
20260507043437 41 0.0 0.0 0.00 0.03 0.02 89 1016.9
20260507042417 40 0.0 0.0 0.00 0.03 0.02 88 1017.0
20260507041417 41 0.0 0.0 0.00 0.03 0.02 88 1017.3
20260507040457 40 0.0 0.0 0.00 0.03 0.02 87 1017.2
20260507035417 40 0.0 0.0 0.00 0.03 0.02 84 1017.2
20260507034432 41 0.0 0.0 0.00 0.03 0.02 85 1017.1
20260507033617 41 0.0 0.0 0.00 0.03 0.02 85 1017.1
20260507032617 41 0.0 0.0 0.00 0.03 0.02 83 1017.1
20260507031617 41 0.0 0.0 0.00 0.03 0.02 81 1017.1
20260507030617 41 0.0 0.0 0.00 0.03 0.02 78 1017.1
20260507025637 42 0.0 0.0 0.00 0.03 0.02 78 1017.0
20260507024617 43 0.0 0.0 0.00 0.03 0.02 76 1017.0
20260507023617 44 0.0 0.0 0.00 0.03 0.02 76 1016.9
20260507022617 45 0.0 0.0 0.00 0.03 0.02 76 1016.9
20260507021617 46 0.0 0.0 0.00 0.03 0.02 75 1016.9
20260507020617 46 0.0 0.0 0.00 0.03 0.02 70 1016.8
20260507015617 47 0.0 0.0 0.00 0.03 0.02 68 1016.7
20260507014617 47 0.0 0.0 0.00 0.03 0.02 66 1016.6
20260507013617 49 0.0 0.0 0.00 0.03 0.02 65 1016.5
20260507012617 50 0.0 0.0 0.00 0.03 0.02 63 1016.5
20260507011617 52 0.0 0.0 0.00 0.03 0.02 62 1016.3
20260507010617 54 0.0 0.0 0.00 0.03 0.02 61 1016.3
20260507005617 55 0.0 1.0 0.00 0.03 0.02 61 1016.4
20260507004637 56 0.0 0.0 0.00 0.03 0.02 54 1016.3
20260507003617 57 23 2.0 3.0 0.00 0.03 0.02 50 1016.2
20260507002617 58 0 2.0 3.0 0.00 0.03 0.02 49 1016.2
20260507001617 58 23 3.0 3.0 0.00 0.03 0.02 50 1016.2
20260507000617 58 23 3.0 4.0 0.00 0.03 0.02 48 1016.2
20260506235617 59 0 3.0 4.0 0.00 0.03 0.02 50 1016.3
20260506234617 59 0 2.0 3.0 0.00 0.03 0.02 46 1016.2
20260506233617 58 45 3.0 4.0 0.00 0.03 0.02 48 1016.2
20260506232617 59 23 3.0 4.0 0.00 0.03 0.02 47 1016.2
20260506231617 60 23 3.0 3.0 0.00 0.03 0.02 49 1016.2
20260506230617 60 0 1.0 2.0 0.00 0.03 0.02 48 1016.2
20260506225615 60 0 1.0 2.0 0.00 0.03 0.02 50 1016.3
20260506224615 60 23 3.0 5.0 0.00 0.03 0.02 50 1016.4
20260506223615 60 23 4.0 5.0 0.00 0.03 0.02 49 1016.3
20260506222615 60 315 3.0 4.0 0.00 0.03 0.02 47 1016.4
20260506221615 60 23 2.0 3.0 0.00 0.03 0.02 49 1016.4
20260506220615 60 0 2.0 3.0 0.00 0.03 0.02 47 1016.5
20260506215615 60 23 3.0 4.0 0.00 0.03 0.02 52 1016.6
20260506214615 60 23 1.0 2.0 0.00 0.03 0.02 49 1016.7
20260506213615 59 23 1.0 1.0 0.00 0.03 0.02 50 1016.7
20260506212706 60 338 1.0 1.0 0.00 0.03 0.02 52 1016.6
20260506212215 59 0 3.0 5.0 0.00 0.03 0.02 51 1016.8
20260506211215 59 23 5.0 9.0 0.00 0.03 0.02 52 1017.0
20260506210255 59 23 1.0 3.0 0.00 0.03 0.02 48 1017.1
20260506205235 59 23 3.0 5.0 0.00 0.03 0.02 53 1017.3
20260506204235 59 23 4.0 5.0 0.00 0.03 0.02 50 1017.3
20260506203215 59 0 2.0 5.0 0.00 0.03 0.02 47 1017.5
20260506202243 60 0.0 0.0 0.00 0.04 0.02 55 1017.6
20260506201615 59 23 1.0 2.0 0.00 0.04 0.02 54 1017.7
20260506200615 59 0 4.0 5.0 0.00 0.04 0.02 57 1017.7
20260506195616 59 23 4.0 6.0 0.00 0.05 0.02 53 1017.8
20260506194615 59 90 1.0 3.0 0.00 0.06 0.02 51 1017.8
20260506193635 58 0 3.0 5.0 0.00 0.07 0.02 54 1017.9
20260506192616 59 45 2.0 3.0 0.00 0.09 0.02 53 1018.0
20260506191616 58 23 3.0 4.0 0.00 0.09 0.02 55 1018.0
20260506190616 58 0.0 1.0 0.00 0.10 0.02 53 1018.1
20260506185616 57 23 3.0 5.0 0.00 0.11 0.02 53 1018.2
20260506184616 56 338 3.0 4.0 0.00 0.12 0.02 55 1018.2
20260506183615 56 23 2.0 2.0 0.00 0.14 0.02 53 1018.2
20260506182636 56 23 2.0 3.0 0.00 0.15 0.02 51 1018.2
20260506181615 56 23 3.0 4.0 0.00 0.16 0.02 55 1018.4
20260506180615 55 23 1.0 1.0 0.00 0.16 0.02 53 1018.4
20260506175616 55 23 3.0 5.0 0.00 0.16 0.02 54 1018.6
20260506174615 55 23 2.0 2.0 0.00 0.17 0.02 55 1018.7
20260506173636 55 0 1.0 2.0 0.00 0.19 0.02 54 1018.7
20260506172615 55 0 2.0 2.0 0.00 0.20 0.02 55 1018.7
20260506171615 56 23 3.0 4.0 0.00 0.22 0.02 57 1018.7
20260506170616 57 0 1.0 2.0 0.00 0.24 0.02 60 1018.5
20260506165615 56 0 4.0 5.0 0.00 0.27 0.02 61 1018.4
20260506164616 56 23 3.0 4.0 0.00 0.29 0.02 56 1018.5
20260506163636 56 23 3.0 4.0 0.00 0.31 0.02 55 1018.4
20260506162616 55 23 3.0 4.0 0.00 0.31 0.02 53 1018.3
20260506161717 56 23 4.0 4.0 0.00 0.31 0.02 58 1018.3
20260506161516 56 23 2.0 3.0 0.00 0.31 0.02 58 1018.3
20260506160516 57 0 3.0 5.0 0.00 0.32 0.02 57 1018.1
20260506155516 56 23 4.0 5.0 0.00 0.33 0.02 61 1018.0
20260506154516 56 0 3.0 5.0 0.00 0.34 0.02 61 1017.9
20260506153516 56 23 2.0 3.0 0.00 0.35 0.02 61 1017.9
20260506152516 55 0 3.0 4.0 0.00 0.36 0.02 58 1017.7
20260506151536 55 270 2.0 3.0 0.00 0.36 0.02 57 1017.8
20260506150516 55 23 1.0 2.0 0.00 0.36 0.02 63 1018.0
20260506145516 55 0 1.0 2.0 0.00 0.36 0.02 66 1018.0